DW6743 Weather Reports


Display with metric or nautical units.
time (UTC)temp
F
wind
direction
speed
MPH
gust
MPH
rain 1hr
in
rain 24hr
in
rain mn
in
humidity
%
barometer
mb
20260507114304 53 12 10.0 16.0 0.00 0.00 0.00 63 1017.0
20260507113804 54 14 9.0 14.0 0.00 0.00 0.00 61 1017.0
20260507113304 54 31 10.0 15.0 0.00 0.00 0.00 63 1017.0
20260507113101 53 17 8.0 16.0 0.00 0.00 0.00 63 1016.9
20260507111804 54 9 10.0 15.0 0.00 0.00 0.00 64 1017.0
20260507111604 54 31 10.0 15.0 0.00 0.00 0.00 64 1016.9
20260507111304 54 7 10.0 15.0 0.00 0.00 0.00 64 1016.9
20260507110804 54 22 9.0 16.0 0.00 0.00 0.00 65 1017.1
20260507110304 54 14 9.0 14.0 0.00 0.00 0.00 65 1017.1
20260507110109 53 328 7.0 14.0 0.00 0.00 0.00 65 1016.9
20260507104804 53 349 8.0 13.0 0.00 0.00 0.00 66 1016.9
20260507104557 53 11 9.0 13.0 0.00 0.00 0.00 65 1016.8
20260507104304 53 357 7.0 12.0 0.00 0.00 0.00 65 1016.9
20260507103805 53 11 8.0 12.0 0.00 0.00 0.00 65 1016.8
20260507103305 53 320 9.0 13.0 0.00 0.00 0.00 65 1016.9
20260507103057 52 323 5.0 12.0 0.00 0.00 0.00 64 1016.8
20260507101836 53 4 5.0 10.0 0.00 0.00 0.00 65 1016.7
20260507101605 52 350 6.0 12.0 0.00 0.00 0.00 64 1016.5
20260507101304 53 354 7.0 12.0 0.00 0.00 0.00 65 1016.6
20260507100804 53 333 8.0 12.0 0.00 0.00 0.00 65 1016.6
20260507100305 53 351 6.0 12.0 0.00 0.00 0.00 67 1016.6
20260507100058 52 1 5.0 11.0 0.00 0.00 0.00 68 1016.6
20260507094804 52 313 7.0 12.0 0.00 0.00 0.00 67 1016.5
20260507094558 52 5 9.0 12.0 0.00 0.00 0.00 67 1016.4
20260507094304 52 340 7.0 12.0 0.00 0.00 0.00 67 1016.4
20260507093804 52 337 7.0 12.0 0.00 0.00 0.00 67 1016.4
20260507093304 52 338 7.0 12.0 0.00 0.00 0.00 67 1016.3
20260507093059 52 340 10.0 13.0 0.00 0.00 0.00 66 1016.2
20260507091804 52 357 5.0 14.0 0.00 0.00 0.00 68 1016.3
20260507091600 51 350 8.0 13.0 0.00 0.00 0.00 67 1016.1
20260507091304 52 356 6.0 12.0 0.00 0.00 0.00 68 1016.2
20260507090804 52 30 7.0 13.0 0.00 0.00 0.00 68 1016.1
20260507090058 51 25 8.0 14.0 0.00 0.00 0.00 66 1016.1
20260507084804 52 8 8.0 12.0 0.00 0.00 0.00 66 1016.1
20260507084559 51 354 5.0 11.0 0.00 0.00 0.00 65 1016.1
20260507084304 52 349 7.0 10.0 0.00 0.00 0.00 65 1016.1
20260507083804 52 356 6.0 12.0 0.00 0.00 0.00 64 1016.0
20260507083304 51 28 10.0 14.0 0.00 0.00 0.00 66 1016.1
20260507083056 51 12 8.0 11.0 0.00 0.00 0.00 66 1016.1
20260507081804 50 32 4.0 10.0 0.00 0.00 0.00 65 1015.9
20260507081603 50 33 4.0 11.0 0.00 0.00 0.00 64 1016.0
20260507081305 51 351 5.0 10.0 0.00 0.00 0.00 66 1016.0
20260507080804 51 337 6.0 12.0 0.00 0.00 0.00 66 1015.9
20260507080304 51 5 6.0 10.0 0.00 0.00 0.00 66 1016.0
20260507080104 50 7 4.0 10.0 0.00 0.00 0.00 66 1015.8
20260507074804 50 11 5.0 9.0 0.00 0.00 0.00 67 1015.8
20260507074609 50 24 5.0 9.0 0.00 0.00 0.00 67 1015.7
20260507074304 50 12 4.0 9.0 0.00 0.00 0.00 67 1015.9
20260507073806 50 0 4.0 8.0 0.00 0.00 0.00 68 1015.8
20260507073057 49 34 6.0 9.0 0.00 0.00 0.00 68 1015.7
20260507071805 49 0 4.0 8.0 0.00 0.00 0.00 71 1015.7
20260507071559 49 13 5.0 9.0 0.00 0.00 0.00 71 1015.6
20260507071304 49 347 3.0 8.0 0.00 0.00 0.00 71 1015.6
20260507070804 49 0 5.0 8.0 0.00 0.00 0.00 71 1015.6
20260507070305 49 333 4.0 8.0 0.00 0.00 0.00 72 1015.5
20260507070058 49 324 3.0 8.0 0.00 0.00 0.00 72 1015.4
20260507064804 48 25 5.0 7.0 0.00 0.00 0.00 73 1015.4
20260507064557 48 2 4.0 6.0 0.00 0.00 0.00 73 1015.4
20260507064304 48 16 2.0 6.0 0.00 0.00 0.00 74 1015.4
20260507063304 48 319 3.0 6.0 0.00 0.00 0.00 75 1015.4
20260507063100 47 324 2.0 6.0 0.00 0.00 0.00 74 1015.3
20260507061804 48 18 3.0 5.0 0.00 0.00 0.00 74 1015.2
20260507061601 47 340 1.0 3.0 0.00 0.00 0.00 74 1015.3
20260507061304 48 340 2.0 3.0 0.00 0.00 0.00 75 1015.3
20260507060805 48 65 1.0 2.0 0.00 0.00 0.00 76 1015.2
20260507060304 48 65 0.0 2.0 0.00 0.00 0.00 78 1015.2
20260507054804 45 65 1.0 1.0 0.00 0.00 0.00 82 1015.1
20260507054639 45 0 0.0 2.0 0.00 0.00 0.00 82 1015.1
20260507054304 44 65 0.0 1.0 0.00 0.00 0.00 82 1015.0
20260507053307 43 65 0.0 2.0 0.00 0.00 0.00 83 1014.9
20260507053058 42 0 0.0 1.0 0.00 0.00 0.00 83 1014.7
20260507051804 40 65 0.0 1.0 0.00 0.00 0.00 84 1014.7
20260507051603 39 0 0.0 2.0 0.00 0.00 0.00 84 1014.7
20260507051304 39 65 0.0 1.0 0.00 0.00 0.00 84 1014.7
20260507050804 38 65 0.0 2.0 0.00 0.00 0.00 84 1014.7
20260507050304 37 65 1.0 2.0 0.00 0.00 0.00 84 1014.7
20260507050059 37 65 0.0 2.0 0.00 0.00 0.00 84 1014.5
20260507044804 36 65 0.0 0.0 0.00 0.00 0.00 84 1014.4
20260507044603 36 0 0.0 2.0 0.00 0.00 0.00 84 1014.4
20260507044304 36 65 0.0 1.0 0.00 0.00 0.00 84 1014.5
20260507043804 35 65 1.0 2.0 0.00 0.00 0.00 84 1014.5
20260507043304 35 65 0.0 1.0 0.00 0.00 0.00 84 1014.5
20260507043103 34 0 0.0 1.0 0.00 0.00 0.00 83 1014.4
20260507041602 34 0 0.0 2.0 0.00 0.00 0.00 84 1014.3
20260507041304 34 65 0.0 0.0 0.00 0.00 0.00 84 1014.4
20260507040804 34 65 1.0 2.0 0.00 0.00 0.00 84 1014.4
20260507040304 33 65 2.0 3.0 0.00 0.00 0.00 84 1014.3
20260507040058 33 65 2.0 4.0 0.00 0.00 0.00 83 1014.3
20260507034600 32 65 1.0 2.0 0.00 0.00 0.00 83 1014.1
20260507034304 33 65 1.0 2.0 0.00 0.00 0.00 83 1014.2
20260507033804 33 65 0.0 0.0 0.00 0.00 0.00 84 1014.1
20260507033304 33 65 0.0 3.0 0.00 0.00 0.00 83 1014.1
20260507033105 33 0 0.0 3.0 0.00 0.00 0.00 83 1014.1
20260507031804 33 65 2.0 2.0 0.00 0.00 0.00 83 1014.1
20260507031609 32 65 0.0 3.0 0.00 0.00 0.00 83 1014.1
20260507031304 32 65 1.0 2.0 0.00 0.00 0.00 83 1014.1
20260507030100 32 65 0.0 2.0 0.00 0.00 0.00 82 1014.1
20260507024604 32 0 0.0 2.0 0.00 0.00 0.00 82 1014.0
20260507024305 33 65 0.0 1.0 0.00 0.00 0.00 83 1014.0
20260507023804 33 65 1.0 2.0 0.00 0.00 0.00 83 1014.0
20260507023304 33 65 1.0 2.0 0.00 0.00 0.00 82 1013.8
20260507023107 33 65 1.0 2.0 0.00 0.00 0.00 82 1013.8
20260507021602 33 0 0.0 1.0 0.00 0.00 0.00 82 1013.7
20260507021304 34 65 0.0 1.0 0.00 0.00 0.00 82 1013.8
20260507020304 34 65 0.0 0.0 0.00 0.00 0.00 82 1013.8
20260507014804 34 65 0.0 0.0 0.00 0.00 0.00 82 1013.8
20260507014605 34 0 0.0 3.0 0.00 0.00 0.00 81 1013.9
20260507014304 34 65 0.0 3.0 0.00 0.00 0.00 82 1013.8
20260507013804 34 65 1.0 3.0 0.00 0.00 0.00 82 1013.8
20260507013056 34 65 3.0 4.0 0.00 0.00 0.00 81 1013.8
20260507011804 34 65 3.0 3.0 0.00 0.00 0.00 81 1013.7
20260507011556 34 65 3.0 4.0 0.00 0.00 0.00 81 1013.7
20260507010804 35 65 2.0 3.0 0.00 0.00 0.00 81 1013.8
20260507010305 35 65 3.0 5.0 0.00 0.00 0.00 81 1013.7
20260507004804 36 65 2.0 3.0 0.00 0.00 0.00 81 1013.6
20260507004558 35 65 2.0 4.0 0.00 0.00 0.00 80 1013.5
20260507004304 35 65 2.0 3.0 0.00 0.00 0.00 81 1013.6
20260507003305 35 65 3.0 5.0 0.00 0.00 0.00 80 1013.5
20260507003055 35 65 3.0 5.0 0.00 0.00 0.00 79 1013.4
20260507001605 35 65 5.0 8.0 0.00 0.00 0.00 79 1013.4
20260507000306 36 66 6.0 8.0 0.00 0.00 0.00 78 1013.3
20260507000057 36 64 6.0 8.0 0.00 0.00 0.00 78 1013.3
20260506234600 36 56 5.0 8.0 0.00 0.00 0.00 77 1013.3
20260506234304 37 56 5.0 8.0 0.00 0.00 0.00 78 1013.3
20260506233304 37 54 5.0 6.0 0.00 0.00 0.00 77 1013.4
20260506233109 37 54 4.0 6.0 0.00 0.00 0.00 77 1013.4
20260506231804 37 50 5.0 6.0 0.00 0.00 0.00 77 1013.3
20260506231559 37 50 4.0 7.0 0.00 0.00 0.00 77 1013.3
20260506231304 37 55 5.0 6.0 0.00 0.00 0.00 77 1013.3
20260506230804 37 53 5.0 7.0 0.00 0.00 0.00 77 1013.2
20260506230304 37 57 5.0 8.0 0.00 0.00 0.00 76 1013.2
20260506230058 37 57 4.0 8.0 0.00 0.00 0.00 76 1013.0
20260506224804 38 50 5.0 6.0 0.00 0.00 0.00 76 1013.0
20260506224556 38 48 5.0 8.0 0.00 0.00 0.00 76 1013.1
20260506224304 38 46 6.0 8.0 0.00 0.00 0.00 77 1013.0
20260506223804 38 51 6.0 8.0 0.00 0.00 0.00 76 1013.0
20260506223102 38 40 4.0 9.0 0.00 0.00 0.00 75 1013.0
20260506221804 38 44 6.0 9.0 0.00 0.00 0.00 76 1012.9
20260506221559 38 44 6.0 9.0 0.00 0.00 0.00 75 1012.8
20260506221304 39 45 6.0 8.0 0.00 0.00 0.00 75 1012.8
20260506220827 39 44 5.0 7.0 0.00 0.00 0.00 75 1012.8
20260506220304 39 44 5.0 8.0 0.00 0.00 0.00 75 1012.7
20260506220059 38 44 4.0 8.0 0.00 0.00 0.00 74 1012.7
20260506214804 39 32 6.0 8.0 0.00 0.00 0.00 74 1012.4
20260506214557 39 29 6.0 8.0 0.00 0.00 0.00 74 1012.3
20260506214304 40 26 6.0 8.0 0.00 0.00 0.00 74 1012.4
20260506213804 40 27 6.0 6.0 0.00 0.00 0.00 74 1012.4
20260506213304 40 27 5.0 6.0 0.00 0.00 0.00 74 1012.3
20260506213113 40 27 3.0 5.0 0.00 0.00 0.00 73 1012.3
20260506211557 40 65 2.0 4.0 0.00 0.00 0.00 72 1012.2
20260506211304 41 65 2.0 3.0 0.00 0.00 0.00 72 1012.2
20260506210804 41 65 1.0 2.0 0.00 0.00 0.00 72 1012.3
20260506210058 41 65 2.0 5.0 0.00 0.00 0.00 71 1012.2
20260506204804 42 65 3.0 3.0 0.00 0.00 0.00 70 1012.1
20260506204559 42 65 3.0 4.0 0.00 0.00 0.00 70 1012.1
20260506204304 43 65 3.0 3.0 0.00 0.00 0.00 70 1012.2
20260506203804 43 65 3.0 3.0 0.00 0.00 0.00 70 1012.1
20260506203304 43 65 3.0 7.0 0.00 0.00 0.00 70 1012.1
20260506203057 43 65 3.0 7.0 0.00 0.00 0.00 69 1012.0
20260506201804 44 65 5.0 7.0 0.00 0.00 0.00 69 1012.0
20260506201557 44 65 5.0 8.0 0.00 0.00 0.00 68 1012.0
20260506201304 45 65 6.0 7.0 0.00 0.00 0.00 68 1012.0
20260506200804 45 65 7.0 8.0 0.00 0.00 0.00 67 1012.1
20260506200059 45 65 5.0 8.0 0.00 0.00 0.00 65 1012.0
20260506194634 47 60 4.0 10.0 0.00 0.00 0.00 63 1012.0
20260506194304 48 60 5.0 8.0 0.00 0.00 0.00 63 1011.9
20260506193804 48 53 6.0 10.0 0.00 0.00 0.00 62 1012.0
20260506193304 48 55 6.0 10.0 0.00 0.00 0.00 62 1011.9
20260506193106 48 53 6.0 10.0 0.00 0.00 0.00 61 1012.0
20260506191557 49 63 5.0 11.0 0.00 0.00 0.00 60 1011.8
20260506191305 49 66 5.0 10.0 0.00 0.00 0.00 60 1011.8
20260506190804 49 58 9.0 12.0 0.00 0.00 0.00 60 1011.8
20260506184804 50 52 8.0 12.0 0.00 0.00 0.00 61 1011.5
20260506184557 50 49 9.0 15.0 0.00 0.00 0.00 60 1011.4
20260506184304 50 53 11.0 15.0 0.00 0.00 0.00 60 1011.5
20260506183305 51 51 13.0 18.0 0.00 0.00 0.00 60 1011.3
20260506183057 50 48 11.0 18.0 0.00 0.00 0.00 60 1011.3
20260506181804 51 43 11.0 16.0 0.00 0.00 0.00 59 1011.4
20260506181559 51 39 11.0 19.0 0.00 0.00 0.00 58 1011.2
20260506181304 51 42 14.0 18.0 0.00 0.00 0.00 59 1011.4
20260506180305 52 54 14.0 20.0 0.00 0.00 0.00 59 1011.3
20260506180107 51 54 13.0 17.0 0.00 0.00 0.00 59 1011.2
20260506174804 52 55 14.0 18.0 0.00 0.00 0.00 59 1011.3
20260506174601 52 66 14.0 18.0 0.00 0.00 0.00 58 1011.2
20260506174304 52 49 14.0 17.0 0.00 0.00 0.00 59 1011.3
20260506173804 52 54 14.0 18.0 0.00 0.00 0.00 58 1011.2
20260506173059 52 40 10.0 18.0 0.00 0.00 0.00 56 1011.2
20260506171804 53 39 8.0 15.0 0.00 0.00 0.00 51 1011.2
20260506171604 53 29 8.0 18.0 0.00 0.00 0.00 50 1011.2
20260506171304 53 38 9.0 16.0 0.00 0.00 0.00 50 1011.2
20260506170804 53 56 13.0 18.0 0.00 0.00 0.00 50 1011.3
20260506170304 53 36 9.0 17.0 0.00 0.00 0.00 49 1011.2
20260506170111 53 45 11.0 17.0 0.00 0.00 0.00 48 1011.1
20260506164804 54 47 12.0 16.0 0.00 0.00 0.00 50 1011.2
20260506164607 53 33 12.0 18.0 0.00 0.00 0.00 50 1011.1
20260506164304 54 50 10.0 15.0 0.00 0.00 0.00 51 1011.2
20260506163804 54 43 12.0 18.0 0.00 0.00 0.00 52 1011.2
20260506163119 53 48 9.0 18.0 0.00 0.00 0.00 50 1011.2
20260506161804 54 41 12.0 17.0 0.00 0.00 0.00 50 1011.1
20260506161614 53 47 10.0 16.0 0.00 0.00 0.00 49 1011.1
20260506161304 54 52 11.0 15.0 0.00 0.00 0.00 49 1011.1
20260506160804 54 36 12.0 16.0 0.00 0.00 0.00 48 1011.1
20260506160304 54 43 12.0 16.0 0.00 0.00 0.00 47 1011.1
20260506160059 54 32 9.0 16.0 0.00 0.00 0.00 46 1011.1
20260506154804 54 50 9.0 17.0 0.00 0.00 0.00 45 1011.1
20260506154624 54 40 9.0 16.0 0.00 0.00 0.00 44 1011.1
20260506153804 55 42 10.0 16.0 0.00 0.00 0.00 44 1011.1
20260506153117 54 21 10.0 16.0 0.00 0.00 0.00 42 1011.0
20260506151804 54 47 13.0 16.0 0.00 0.00 0.00 42 1011.1
20260506151600 53 53 12.0 15.0 0.00 0.00 0.00 41 1011.1
20260506151304 54 28 10.0 15.0 0.00 0.00 0.00 41 1011.2
20260506144804 54 28 12.0 16.0 0.00 0.00 0.00 35 1011.2
20260506144558 54 24 10.0 16.0 0.00 0.00 0.00 35 1011.1
20260506144304 54 35 13.0 16.0 0.00 0.00 0.00 37 1011.2
20260506143804 54 18 12.0 16.0 0.00 0.00 0.00 36 1011.2
20260506143304 53 19 12.0 17.0 0.00 0.00 0.00 34 1011.3
20260506143107 53 30 11.0 17.0 0.00 0.00 0.00 33 1011.3
20260506141804 54 28 12.0 16.0 0.00 0.00 0.00 38 1011.3
20260506141559 53 25 12.0 17.0 0.00 0.00 0.00 38 1011.3
20260506141304 54 25 11.0 16.0 0.00 0.00 0.00 38 1011.3
20260506140804 54 28 13.0 16.0 0.00 0.00 0.00 40 1011.4
20260506140304 54 28 13.0 17.0 0.00 0.00 0.00 41 1011.4
20260506140059 53 25 12.0 17.0 0.00 0.00 0.00 40 1011.4
20260506134804 54 26 10.0 17.0 0.00 0.00 0.00 40 1011.4
20260506134557 54 52 10.0 16.0 0.00 0.00 0.00 41 1011.4
20260506134304 54 20 10.0 15.0 0.00 0.00 0.00 41 1011.4
20260506133304 54 30 12.0 16.0 0.00 0.00 0.00 41 1011.4
20260506133059 53 9 12.0 16.0 0.00 0.00 0.00 41 1011.3
20260506131806 54 20 13.0 16.0 0.00 0.00 0.00 38 1011.4
20260506131601 54 24 11.0 16.0 0.00 0.00 0.00 39 1011.3
20260506131304 54 15 12.0 16.0 0.00 0.00 0.00 40 1011.4
20260506130804 54 22 13.0 15.0 0.00 0.00 0.00 39 1011.4
20260506130304 53 14 10.0 16.0 0.00 0.00 0.00 40 1011.3
20260506124559 53 11 11.0 17.0 0.00 0.00 0.00 43 1011.4
20260506124318 53 13 11.0 15.0 0.00 0.00 0.00 44 1011.4
20260506123304 54 24 12.0 16.0 0.00 0.00 0.00 44 1011.3
20260506123100 54 15 13.0 16.0 0.00 0.00 0.00 45 1011.3
20260506121804 54 347 12.0 15.0 0.00 0.00 0.00 47 1011.4
20260506121600 53 345 8.0 16.0 0.00 0.00 0.00 48 1011.3
20260506121304 53 354 12.0 15.0 0.00 0.00 0.00 48 1011.4
20260506120804 54 356 14.0 16.0 0.00 0.00 0.00 47 1011.4
20260506120304 54 355 9.0 15.0 0.00 0.00 0.00 47 1011.5
20260506120101 54 2 11.0 15.0 0.00 0.00 0.00 47 1011.4
20260506114804 54 354 11.0 15.0 0.00 0.00 0.00 48 1011.4